Location: �perlecques
(50.8057°N, 2.1521°E)
Time: 08:37:52
(UTC+00:00)

STARS - Pass Details

Date: 06 April 2023
Orbit: 616 x 630 km, 98.1° (Epoch: 03 June)

Event Time Altitude Azimuth Distance (km) Brightness Sun altitude
Rises 01:06:42 0° 359° (N) 2,920 ? -30.8°
Reaches altitude 10° 01:10:14 10° 328° (NNW) 2,011 ? -30.6°
Enters shadow 01:11:22 12° 313° (NW) 1,897 ? -30.5°
